Location: Elende
(51.4317°N, 10.6316°E)
Time: 09:54:35
(UTC+00:00)

SJ 16-02 - Pass Details

Date: 18 September 2020
Orbit: 606 x 616 km, 75.0° (Epoch: 25 October)

Event Time Altitude Azimuth Distance (km) Brightness Sun altitude
Rises 17:58:39 0° 206° (SSW) 2,855 5.0 -6.2°
Reaches altitude 10° 18:00:53 10° 208° (SSW) 1,955 4.2 -6.5°
Maximum altitude 18:05:14 75° 294° (WNW) 633 1.6 -7.2°
Drops below altitude 10° 18:09:38 10° 20° (NNE) 1,969 3.9 -7.9°
Sets 18:11:53 0° 23° (NNE) 2,877 4.7 -8.2°
